Milwaukee, WI

4:24 AM CDT on April 24, 2018 (GMT -0500)
Gen Mitchell International

Weather History for KMKE - September, 2012

Change the Weather History Date:

Wednesday, September 5, 2012

  Actual Average Record
Temperature  
Mean Temperature 72 °F 67 °F  
Max Temperature 78 °F 75 °F 94 °F (1912)
Min Temperature 65 °F 59 °F 43 °F (1962)
Degree Days  
Heating Degree Days 0 2  
Month to date heating degree days 0 6  
Since 1 July heating degree days 0 32  
Cooling Degree Days 7 4  
Month to date cooling degree days 43 21  
Year to date cooling degree days 1014 586  
Growing Degree Days 21 (Base 50)    
Moisture  
Dew Point 63 °F    
Average Humidity 77    
Maximum Humidity 93    
Minimum Humidity 60    
Precipitation  
Precipitation T in 0.11 in 1.95 in (1917)
Month to date precipitation 0.93 0.52  
Year to date precipitation 20.78 24.70  
Snow  
Snow 0.00 in 0.00 in 0.00 in ()
Month to date snowfall 0.0 0.0  
Since 1 July snowfall 0.0 0.0  
Since 1 September snowfall 0.0 0.0  
Snow Depth 0.00 in    
Sea Level Pressure  
Sea Level Pressure 29.80 in    
Wind  
Wind Speed 5 mph (SSE)    
Max Wind Speed 14 mph    
Max Gust Speed 23 mph    
Visibility 10 miles    
Events      
T = Trace of Precipitation, MM = Missing Value Source: NWS Daily Summary

Daily Weather History Graph

Daily Weather History Graph

Search for Another Location

Airport or City:

Astronomy

Sep. 05, 2012 Rise Set
Actual Time 6:20 AM CDT 7:18 PM CDT
Civil Twilight 5:52 AM CDT 7:47 PM CDT
Nautical Twilight 5:17 AM CDT 8:21 PM CDT
Astronomical Twilight 4:41 AM CDT 8:57 PM CDT
Moon 9:38 PM CDT (9/5) 11:34 AM CDT (9/5)
Length of Visible Light 13h 55m
Length of Day
12h 57m
Waning Gibbous, 76% of the Moon is Illuminated
Sep 5
Waning Gibbous
Sep 8
Last Quarter
Sep 15
New
Sep 22
First Quarter
Sep 29
Full

Hourly Weather History & Observations

Time (CDT) Temp. Dew Point Humidity Pressure Visibility Wind Dir Wind Speed Gust Speed Precip Events Conditions
12:45 AM 66.2 °F 62.6 °F 88% 29.85 in 10.0 mi SE 6.9 mph - 0.01 in   Overcast
12:52 AM 66.0 °F 62.1 °F 87% 29.83 in 10.0 mi East 5.8 mph - 0.01 in   Overcast
1:52 AM 66.9 °F 62.1 °F 84% 29.81 in 10.0 mi ESE 4.6 mph - N/A   Mostly Cloudy
2:52 AM 66.9 °F 64.0 °F 90% 29.78 in 10.0 mi Calm Calm - N/A   Scattered Clouds
3:52 AM 66.9 °F 63.0 °F 87% 29.81 in 10.0 mi SSW 4.6 mph - N/A   Mostly Cloudy
4:52 AM 66.9 °F 63.0 °F 87% 29.81 in 10.0 mi Calm Calm - N/A   Scattered Clouds
5:52 AM 66.0 °F 62.1 °F 87% 29.88 in 10.0 mi WNW 11.5 mph 23.0 mph N/A   Mostly Cloudy
6:52 AM 66.0 °F 60.1 °F 81% 29.88 in 10.0 mi West 8.1 mph - N/A   Mostly Cloudy
7:52 AM 66.9 °F 60.1 °F 79% 29.85 in 10.0 mi SW 6.9 mph - N/A   Overcast
8:52 AM 66.0 °F 61.0 °F 84% 29.75 in 10.0 mi SE 6.9 mph - 0.00 in   Overcast
9:52 AM 70.0 °F 62.1 °F 76% 29.76 in 10.0 mi SSW 4.6 mph - N/A   Mostly Cloudy
10:52 AM 71.1 °F 60.1 °F 68% 29.78 in 10.0 mi SW 5.8 mph - N/A   Mostly Cloudy
11:52 AM 75.0 °F 61.0 °F 62% 29.76 in 10.0 mi SE 3.5 mph - N/A   Partly Cloudy
12:52 PM 75.9 °F 64.0 °F 67% 29.77 in 10.0 mi ESE 6.9 mph - N/A   Scattered Clouds
1:52 PM 75.9 °F 64.9 °F 69% 29.76 in 10.0 mi ESE 8.1 mph - N/A   Scattered Clouds
2:52 PM 75.9 °F 64.0 °F 67% 29.76 in 10.0 mi ESE 9.2 mph - N/A   Scattered Clouds
3:52 PM 77.0 °F 64.9 °F 66% 29.77 in 10.0 mi ESE 11.5 mph - N/A   Scattered Clouds
4:52 PM 73.9 °F 66.0 °F 76% 29.78 in 10.0 mi SE 9.2 mph - N/A   Mostly Cloudy
5:52 PM 75.0 °F 64.9 °F 71% 29.78 in 10.0 mi SSE 5.8 mph - N/A   Mostly Cloudy
6:52 PM 75.0 °F 64.0 °F 69% 29.79 in 10.0 mi SE 3.5 mph - N/A   Mostly Cloudy
7:52 PM 73.9 °F 66.0 °F 76% 29.80 in 10.0 mi Calm Calm - N/A   Mostly Cloudy
8:52 PM 73.0 °F 66.9 °F 81% 29.81 in 10.0 mi Calm Calm - N/A   Mostly Cloudy
9:52 PM 72.0 °F 66.0 °F 81% 29.81 in 10.0 mi Calm Calm - N/A   Mostly Cloudy
10:52 PM 70.0 °F 64.9 °F 84% 29.81 in 10.0 mi Calm Calm - N/A   Scattered Clouds
11:52 PM 72.0 °F 66.0 °F 81% 29.82 in 10.0 mi West 3.5 mph - N/A   Mostly Cloudy